Regional Weather Roundup
Issued by NWS

Home | Current Version | Previous Version | Text Only | Print | Product List | Glossary Off
Versions: 1 2 3 4 5 6 7 8 9 10 11 12 13 14 15 16 17 18 19 20 21 22 23 24 25 26 27 28 29 30 31 32 33 34 35 36 37 38 39 40 41 42 43 44 45 46 47 48 49 50

000
ASUS43 KDTX 281101
RWRMI
MICHIGAN HOURLY REGIONAL WEATHER ROUNDUP
NATIONAL WEATHER SERVICE DETROIT/PONTIAC MI
600 AM EST TUE FEB 28 2017

NOTE: "FAIR" INDICATES FEW OR NO CLOUDS BELOW 12,000 FEET WITH NO
SIGNIFICANT WEATHER AND/OR OBSTRUCTION TO VISIBILITY.

MIZ047>049-052>055-059>063-066>070-074>076-081>083-281200-
SOUTHEAST LOWER MICHIGAN

CITY           SKY/WX    TMP DP  RH WIND       PRES   REMARKS
ADRIAN         LGT RAIN  39  39 100 SE9       30.07F FOG     WCI  33
ALMA           CLOUDY    37  36  95 SE8       30.03S FOG     WCI  31
ANN ARBOR      LGT RAIN  39  39 100 CALM      30.09F FOG
BAD AXE        CLOUDY    35  33  95 SE3       30.10F FOG
CARO           CLOUDY    37  36  98 SE5       30.07F FOG     WCI  33
DETROIT CITY   MOCLDY    38  38 100 SE7       30.11F FOG     WCI  33
DETROIT        CLOUDY    39  38  96 SE7       30.11F FOG     WCI  34
FLINT          CLOUDY    40  39  97 SE12      30.07F WCI  33
GROSSE ILE     CLOUDY    40  37  91 SE7       30.10F
HILLSDALE      LGT RAIN  37  37 100 SE8       30.03F WCI  31
HOWELL         CLOUDY    40  38  94 SE9       30.05F FOG     WCI  33

CITY           SKY/WX    TMP DP  RH WIND       PRES   REMARKS
JACKSON        LGT RAIN  41  38  89 SE12      30.03F
LAMBERTVILLE   RAIN      42  40  93 SE6       30.09F
LANSING        LGT RAIN  41  38  89 SE10      30.03F VSB 3/4
LAPEER         CLOUDY    40  39  99 S6        30.09F FOG
MASON          LGT RAIN  40  40  97 SE7       30.05F
MONROE         LGT RAIN  41  40  97 SE8       30.09F
MT. CLEMENS    CLOUDY    36  36 100 SE9       30.11F WCI  29
PONTIAC        CLOUDY    39  36  89 SE8       30.08F FOG     WCI  33
PORT HOPE        N/A     34  33  96 SE9       30.07F WCI  27
PORT HURON     CLOUDY    36  34  93 SE6       30.13F FOG     WCI  31
TRI CITIES     CLOUDY    39  38  96 SE13      30.05F FOG     WCI  31
MIDLAND        CLOUDY    39  36  87 SE7       30.04F WCI  34
TROY           CLOUDY    38  36  92 E3        30.12F FOG
SAGINAW HB     CLOUDY    37  34  87 SE7       30.05F FOG     WCI  32
$$
MIZ043>046-050>051-056>058-064>065-071>073-077>080-281200-
SOUTHWEST LOWER MICHIGAN

CITY           SKY/WX    TMP DP  RH WIND       PRES   REMARKS
BATTLE CREEK   LGT RAIN  42  40  92 S12       29.99F
BENTON HARBOR  CLOUDY    46  42  86 SE13      29.91F
BIG RAPIDS     CLOUDY    35  33  93 SE5       29.96F WCI  31
COLDWATER      LGT RAIN  42  41  95 SE8       30.01S
FREMONT        LGT RAIN  40  37  89 SE5       29.96R
HOLLAND        CLOUDY    44  40  85 SE16      29.90F
GRAND RAPIDS   CLOUDY    41  38  89 SE15      29.94F FOG
IONIA          LGT RAIN  39  38  98 E13       29.97F WCI  31
KALAMAZOO      LGT RAIN  43  39  86 SE10G17   29.97F FOG
LUDINGTON      LGT RAIN  40  38  95 SE7       29.93F WCI  35
MARSHALL       LGT RAIN  41  41  98 SE10      30.00F
MOUNT PLEASANT CLOUDY    37  35  94 SE7       30.01F WCI  31
MUSKEGON       RAIN      43  41  93 CALM      29.96R FOG
SOUTH HAVEN    CLOUDY    44  42  92 S14       29.92F
$$
MIZ016>042-281200-
NORTHERN LOWER MICHIGAN

CITY           SKY/WX    TMP DP  RH WIND       PRES   REMARKS
ALPENA         CLOUDY    32  30  92 CALM      30.05F
BEAVER ISLAND  CLOUDY    36  30  77 SE8       29.95F WCI  30
BELLAIRE       CLOUDY    29  28  96 CALM      29.98F
CADILLAC       CLOUDY    36  33  91 E7        29.96F WCI  30
CHARLEVOIX     CLOUDY    33  28  79 E7        29.99F WCI  27
FRANKFORT      PTCLDY    41  35  80 SE6       29.93F
GAYLORD        CLOUDY    34  26  72 SE7       29.99F WCI  28
GRAYLING       CLOUDY    32  29  91 CALM      30.01F
HARBOR SPRINGS CLOUDY    33  28  80 NE7       29.98F WCI  27
HOUGHTON LAKE  CLOUDY    36  32  85 SE7       30.02F WCI  30
MANISTEE       RAIN      39  36  89 SE6       29.94F WCI  35
OSCODA         MOCLDY    31  30  94 CALM      30.06F
PELLSTON       CLOUDY    25  21  85 CALM      29.99F
ROGERS CITY    CLOUDY    36  30  80 S8        30.04S WCI  29
TRAVERSE CITY  CLOUDY    38  31  76 S3        29.96F
$$
MIZ007>008-015-281200-
EASTERN UPPER MICHIGAN

CITY           SKY/WX    TMP DP  RH WIND       PRES   REMARKS
KINROSS        CLOUDY    26  24  92 E5        29.99F WCI  20
MACKINAC ISLAN CLOUDY    33  26  75 SE10      29.98F WCI  25
NEWBERRY       CLOUDY    30  26  83 SE8       29.94F WCI  23
S. S. MARIE    MOCLDY    25  22  88 E5        30.01F WCI  19
MUNISING         N/A     33  31  92 VRB5      29.89F WCI  29
$$
MIZ004>006-011>014-085-281200-
CENTRAL UPPER MICHIGAN

CITY           SKY/WX    TMP DP  RH WIND       PRES   REMARKS
MANISTIQUE     PTCLDY    33  33  97 SE8       29.91F WCI  26
ESCANABA       CLOUDY    33  33 100 SE6       29.89F WCI  28
MENOMINEE      LGT RAIN  38  35  89 S9        29.88F WCI  31
SAWYER-GWINN   FOG       30  30  99 S6        29.87S VSB 1/2 WCI  24
$$
MIZ001>003-009>011-084-281200-
WESTERN UPPER MICHIGAN

CITY           SKY/WX    TMP DP  RH WIND       PRES   REMARKS
IRON MOUNTAIN  CLOUDY    27  23  85 CALM      29.85S FOG
HOUGHTON       CLOUDY    31  22  69 E9        29.81F WCI  23
COPPER HARBOR    N/A     33  28  81 CALM      29.86R
IRONWOOD       CLOUDY    36  29  75 S12G17    29.79R WCI  28
$$

ABBREVIATIONS USED IN REMARKS
   TC - TEMPERATURE IN CELSIUS
  WCI - WIND CHILL INDEX
   HX - HEAT INDEX
  VSB - VISIBILITY





USA.gov is the U.S. government's official web portal to all federal, state and local government web resources and services.